Location: Brede
(50.9167°N, 0.6000°E)
Time: 20:34:43
(UTC+00:00)

Vanguard 1 Rocket - Pass Details

Date: 01 December 2020
Orbit: 655 x 4221 km, 34.3° (Epoch: 17 January)

Event Time Altitude Azimuth Distance (km) Brightness Sun altitude
Exits shadow 00:59:55 33° 124° (SE) 5,023 10.9 -57.6°
Drops below altitude 10° 01:09:48 10° 98° (E) 5,898 11.6 -56.7°
Sets 01:13:52 0° 91° (E) 6,500 12.0 -56.3°
